010113 163  1.1-  1.6-    010118 372  1.6-  0.3-    010211 349  0.8-  1.1-  

010114 163  0.3-  0.0     010118 349 (1.3+  2.7-)   010211 349  0.5+  0.6-  

010114 163  0.6-  0.6+    010118 349  0.5+  1.2-    010213 704  0.4-  0.4-  

010114 163  0.2-  1.2+    010118 349  0.1+  1.9-    010213 704  0.5+  0.0   

010114 118  0.3-  0.4+    010120 372  0.4+  0.2+    010213 704  0.3+  0.9-  

010114 557  0.6-  0.2-    010121 372 (2.2-  0.2+)   010213 704  0.3-  0.2-  

010114 118  0.6+  0.5+    010121 372 (2.8-  0.1-)   010213 704  0.2+  0.8-  

010114 557  0.6-  0.1+    010127 046  0.0   0.5+    010213 127  0.5+  1.1-  

010114 118  0.5+  0.5+    010127 046  0.0   0.5+    010213 127  0.6+  1.4-  

010114 557  0.6-  0.1-    010127 046  0.6+  0.3+    010214 127  1.0+  0.6-  

010114 557  0.6-  0.1+    010127 046  0.2+  0.9+    010214 127  0.9+  0.5-  

010114 046  0.7+  0.7+    010127 046  0.5+  0.7+    010215 950  0.0   1.0+  

010114 046  1.3+  0.1+    010127 372  0.7-  0.4-    010215 950  0.2-  1.1+  

010114 046  0.9+  0.8+    010127 151  0.1+  1.0-    010215 950  0.1+  1.1+  

010114 046  1.0+  0.1-    010127 151  0.1+  0.1-    010215 704  0.2+  0.1+  

010114 046  0.6+  0.2+    010127 151  0.2-  0.4-    010215 704  0.2+  0.2-  

010114 046  0.3+  0.2-    010127 151  0.4-  0.9-    010215 704  0.2-  0.5+  

010114 611  0.5-  0.3-    010128 557  0.5+  0.2-    010215 704  1.3+  0.4+  

010114 611  1.6-  0.5-    010128 557  0.4+  0.4+    010215 704  1.0-  0.1-  

010114 118  0.1+  0.8+    010128 557  0.1+  0.6+    010215 127  1.1+  0.7+  

010114 118  0.4-  0.4+    010129 372  1.7-  0.8+    010215 127  1.4+  0.6+  

010114 118  0.7+  0.2+    010129 349  0.2+  0.3-    010217 170 (3.8-  1.9-) 

010115 704  0.2-  0.7+    010129 349  0.4+  0.8+    010217 170 (3.0-  1.0-) 

010115 704  1.8+  0.9-    010129 349  0.6-  0.9+    010219 360  0.2-  0.7+  

010115 704  0.1+  0.2+    010129 118  0.0   0.5+    010219 360  0.4-  0.5+  

010115 704  0.5-  0.2+    010129 118  0.3+  1.0+    010220 750  0.3+  0.5-  

010115 704  0.0   0.6-    010202 360  0.0   0.4+    010220 750  0.9-  0.5+  

010115 903  1.0+  0.5-    010202 360  0.0   0.5+    010220 348  0.1-  0.8-  

010115 903  1.8+  0.4-    010202 360  0.3+  0.0     010220 348  1.3-  0.3-  

010115 903  0.7-  0.2-    010203 170 (3.4-  1.0-)   010222 170 (3.7-  2.2-) 



NAKANO

         **** Don't distribute anyone except personal use only ****

                (C) Copyright 2001 OAA/ComputingSection

write mail from CFAD0::NAKANO on 2001-03-04 02:02:19(JST).

 



    C/2001 A1 (LINEAR) 

Epoch 2000 Sept. 13.0 TT = JDT 2451800.5  

T 2000 Sept. 17.57137 TT                                Nakano

q   2.4056985            (2000.0)            P               Q

z  +0.0039124      Peri.  107.85833     -0.12118189     -0.94568758

 +/-0.0001580      Node   339.60039     +0.18057844     +0.27781141

e   0.9905880      Incl.   59.92730     +0.97606679     -0.16880705

From 72 observations 2001 Jan. 7-Feb. 4, mean residual 0".68.



NAKANO

         **** Don't distribute anyone except personal use only ****

                (C) Copyright 2001 OAA/ComputingSection

write mail from CFAD0::NAKANO on 2001-02-06 01:56:22(JST).

 







    C/2001 A1 (LINEAR) 

T 2000 Oct. 11.21053 TT                                 Nakano

q   2.6577475            (2000.0)            P               Q

                   Peri.  119.90414     -0.31714967     -0.88585858

                   Node   337.82435     +0.18860810     +0.29101608

e   1.0            Incl.   63.78724     +0.92943159     -0.36133670

From 47 observations 2001 Jan. 7-18.



NAKANO

         **** Don't distribute anyone except personal use only ****

                (C) Copyright 2001 OAA/ComputingSection

write mail from CFAD0::NAKANO on 2001-01-25 05:13:54(JST).

 

◎C/2001 A1の軌道と予報位置です

 上尾の門田健一氏は,15日夜,この彗星の観測に成功しました.氏による

CCD 全光度は,16.5等,コマ視直径20"ほどとのことです.



    C/2001 A1 (LINEAR) 

T 2000 Oct. 5.88535 TT                                  Nakano

q   2.6171993            (2000.0)            P               Q

                   Peri.  117.64891     -0.28163662     -0.90001625

                   Node   338.11526     +0.18451466     +0.28940643

e   1.0            Incl.   63.17962     +0.94161306     -0.32590591

From 32 observations 2001 Jan. 7-15.

 

Date/        TT  R.A.(2000) Decl.     Delta   r     Daily motion  Mag.  Moon Age

              h    h  m       。  ,                      ,  / PA 。  m1      。

2001 Jan. 15 18  11 51.12  +41 47.8   2.139  2.830    17.0 / 263  16.7   47  .58

          16 18  11 49.62  +41 45.6   2.133  2.834    17.5 / 263  16.7   56  .48

          17 18  11 48.07  +41 43.4   2.126  2.838    17.9 / 263  16.7   67  .37

          18 18  11 46.48  +41 41.1   2.120  2.842    18.4 / 262  16.7   77  .28

          19 18  11 44.85  +41 38.6   2.115  2.846    18.9 / 262  16.7   88  .20

          20 18  11 43.18  +41 36.0   2.109  2.850    19.4 / 262  16.7   99  .12

          21 18  11 41.47  +41 33.2   2.104  2.854    19.8 / 262  16.7  109  .07

          22 18  11 39.73  +41 30.2   2.099  2.858    20.3 / 261  16.7  119  .03

          23 18  11 37.95  +41 27.0   2.094  2.862    20.7 / 261  16.7  129  .01

          24 18  11 36.13  +41 23.7   2.089  2.867    21.1 / 260  16.7  137  .00

          25 18  11 34.28  +41 20.1   2.085  2.871    21.6 / 260  16.7  144  .01

          26 18  11 32.40  +41 16.3   2.081  2.875    22.0 / 260  16.7  149  .04

          27 18  11 30.49  +41 12.3   2.077  2.879    22.4 / 259  16.7  149  .09

          28 18  11 28.54  +41 08.0   2.074  2.884    22.8 / 259  16.7  145  .15

          29 18  11 26.57  +41 03.4   2.070  2.888    23.1 / 258  16.7  138  .23

          30 18  11 24.57  +40 58.6   2.067  2.892    23.5 / 258  16.7  129  .32

          31 18  11 22.54  +40 53.6   2.065  2.897    23.9 / 257  16.7  119  .41

     Feb.  1 18  11 20.49  +40 48.2   2.062  2.901    24.2 / 257  16.7  108  .52

           2 18  11 18.42  +40 42.5   2.060  2.906    24.5 / 256  16.7   96  .62

           3 18  11 16.33  +40 36.6   2.059  2.910    24.9 / 256  16.7   83  .73

           4 18  11 14.22  +40 30.3   2.057  2.915    25.1 / 255  16.7   71  .82

           5 18  11 12.09  +40 23.7   2.056  2.919    25.4 / 254  16.7   58  .90

           6 18  11 09.95  +40 16.8   2.055  2.924    25.7 / 254  16.7   45  .96

           7 18  11 07.80  +40 09.6   2.055  2.929    25.9 / 253  16.7   35  .99

           8 18  11 05.63  +40 02.0   2.055  2.933    26.2 / 253  16.7   28 1.00

           9 18  11 03.46  +39 54.1   2.055  2.938    26.4 / 252  16.7   29  .97

          10 18  11 01.28  +39 45.9   2.056  2.943    26.6 / 251  16.8   36  .91

          11 18  10 59.10  +39 37.3   2.057  2.947    26.8 / 251  16.8   46  .83

          12 18  10 56.92  +39 28.4   2.058  2.952    27.0 / 250  16.8   58  .74

          13 18  10 54.73  +39 19.2   2.059  2.957    27.1 / 249  16.8   70  .64

          14 18  10 52.55  +39 09.6   2.061  2.962    27.2 / 249  16.8   82  .54

          15 18  10 50.37  +38 59.7   2.064  2.967    27.4 / 248  16.8   94  .44

NAKANO

         **** Don't distribute anyone except personal use only ****

                (C) Copyright 2001 OAA/ComputingSection

write mail from CFAD0::NAKANO on 2001-01-16 04:23:07(JST).

 



戻ります。